User: anonymous   Login
Location: Unspecified
(0.0000°N, 0.0000°E)
Time: 21:51:42
(UTC+00:00)
Language:

Landsat 2 - Orbit

View from above orbital plane
View from above orbital plane
View from above satellite
View from above satellite

Ground track
Ground track

The orbit data is extracted from the following two-line orbital elements,

1  7615U 75004A   18291.52366320 -.00000181  00000-0 -10091-3 0  9999
2  7615  98.7613 308.3158 0009611 112.9901 247.2277 13.96663571228711
Epoch (UTC): 18 October 2018 12:34:04
Eccentricity: 0.0009611
inclination: 98.7613°
perigee height: 898 km
apogee height: 912 km
right ascension of ascending node: 308.3158°
argument of perigee: 112.9901°
revolutions per day: 13.96663571
mean anomaly at epoch: 247.2277°
orbit number at epoch: 22871

The dashed part of the orbit path shows where the satellite is in the earth's shadow,  

DLR